Regional Weather Roundup
Issued by NWS Mobile, AL

Home | Current Version | Previous Version | Text Only | Print | Product List | Glossary On
Versions: 1 2 3 4 5 6 7 8 9 10 11 12 13 14 15 16 17 18 19 20 21 22 23 24 25 26 27 28 29 30 31 32 33 34 35 36 37 38 39 40 41 42 43 44 45 46 47 48 49 50
000
ASUS44 KMOB 281410
RWRMOB
REGIONAL WEATHER ROUNDUP
NATIONAL WEATHER SERVICE MOBILE AL
900 AM CDT THU AUG 28 2014

NOTE: "FAIR" INDICATES FEW OR NO CLOUDS BELOW 12,000 FEET WITH NO
      SIGNIFICANT WEATHER AND/OR OBSTRUCTIONS TO VISIBILITY.

  * THESE STATIONS ARE PART OF THE UNIVERSITY OF SOUTH ALABAMA
    MESONET AND ARE NOT UNDER NWS OR FAA QUALITY CONTROL.

ALZ061>064-281500-
COASTAL ALABAMA

CITY           SKY/WX    TMP DP  RH WIND       PRES   REMARKS
MOBILE REG APT MOSUNNY   80  75  84 NE5       30.02S
BROOKLEY FIELD MOSUNNY   80  75  84 NE6       30.03R
USA CAMPUS*      N/A     81  73  78 CALM      30.01F
DOG RIVER*       N/A     81  75  83 NE2       30.02S


CITY           SKY/WX    TMP DP  RH WIND       PRES   REMARKS
MOUNT VERNON*    N/A     77  73  88 CALM      30.03R
SARALAND*      NOT AVBL
BAY MINETTE*   NOT AVBL
LOXLEY*          N/A     79  72  78 N3        30.02F
ROBERTSDALE*     N/A     70  70 100 CALM      30.02S
FAIRHOPE*        N/A     79  73  83 NE6       30.01S
ELBERTA*         N/A     79  66  65 N5        30.01S
FOLEY*         NOT AVBL
GRAND BAY*       N/A     82  73  74 E5        30.00S
DAUPHIN ISLND* NOT AVBL
BON SCOUR NWR* NOT AVBL
GULF SHORES    MOSUNNY   81  73  76 NE5       30.01S

$$

ALZ051>060-281500-
INTERIOR SOUTHWEST AND SOUTH CENTRAL ALABAMA

CITY           SKY/WX    TMP DP  RH WIND       PRES   REMARKS
GREENVILLE     MOSUNNY   79  66  64 CALM      30.04R
EVERGREEN      MOSUNNY   80  67  64 CALM      30.04R
CASTLEBERRY*   NOT AVBL
ATMORE*          N/A     79  73  83 N3        30.04R
DIXIE*         NOT AVBL
ANDALUSIA/OPP  MOSUNNY   83  66  56 CALM      30.03S
ANDALUSIA*     NOT AVBL
FLORALA APT    MOSUNNY   81  64  56 E5        30.05R
FLORALA*         N/A     79  64  61 NE3       30.00F

$$

FLZ001>006-281500-
WESTERN FLORIDA PANHANDLE

CITY           SKY/WX    TMP DP  RH WIND       PRES   REMARKS
PENSACOLA      MOSUNNY   81  70  69 N5        30.01S
NAS PENSACOLA  PTSUNNY   84  72  67 N7        30.00S
MILTON         PTSUNNY   79  69  71 CALM      30.02S
WHTNG S FIELD  PTSUNNY   80  69  69 VRB3      30.02S


CITY           SKY/WX    TMP DP  RH WIND       PRES   REMARKS
WALNUT HILL*   NOT AVBL
JAY*           NOT AVBL
DUKE FIELD     PTSUNNY   78  70  76 N2        30.02S
CRESTVIEW      MOSUNNY   79  67  66 NE3       30.03S
VALPARAISO     MOSUNNY   80  70  70 NE2       30.01S
DESTIN         MOSUNNY   85  74  69 N3        30.01S

$$

MSZ076-079-281500-
INTERIOR SOUTHEAST MISSISSIPPI

CITY           SKY/WX    TMP DP  RH WIND       PRES   REMARKS
LEAKESVILLE*   NOT AVBL
AGRICOLA*      NOT AVBL

$$

MARINE OBSERVATIONS

STATION/POSITION TIME  TEMP    WIND        PRES    WAVE
                       AIR SEA DIR/SP/G            HT/PER
                 (UTC) (F)     (DEG/KT/KT) (MB)    (FT/S)
PASCAGOULA       1400   83     360/  3/  5 1015.8S
PETIT BOIS ISLND 1400   83      60/  9/ 12 1016.2R
GRAND BAY        1300   79      40/  5     1017.0S
KATRINA CUT      1300   83      70/ 10     1016.3S
CEDAR POINT      1300   80      60/  7     1016.6S
E DAUPHIN ISLAND 1300   81      50/  8/  9 1016.1R
MIDDLE BAY LIGHT 1300   81      50/  8     1015.9S
USCG MOBILE BAY  1400   81 86   60/  4/  5 1015.3S
STATE DOCKS      1400   84 86              1016.2S
MEAHER PARK      1300   81      60/  2     1015.9S
WEEKS BAY        1300   71                   N/A
FORT MORGAN      1400   82      70/  8/ 10 1015.6S
12 S ORANGE BCH  1400   82 85   40/ 10/ 12 1016.1R   2/ 5
PENSACOLA BAY    1400   83 85  350/  5/  7 1016.3S
64 S DAUPHIN ISL 1326   84 85   70/ 10/ 12 1015.6R

$$

SELECTED LOCATIONS ACROSS THE REGION

CITY           SKY/WX    TMP DP  RH WIND       PRES   REMARKS
NEW ORLEANS    PTSUNNY   84  76  76 E6        29.99R
GULFPORT       MOSUNNY   84  73  69 NE8       30.00R
PASCAGOULA AP  PTSUNNY   82  74  76 NE7       30.01S
PASCAGOULA*      N/A     82  73  74 VRB3      30.00S
HATTIESBURG    PTSUNNY   79  72  79 CALM      30.03S
LAUREL         MOSUNNY   79  72  78 CALM      30.04R
MERIDIAN       MOSUNNY   79  67  66 CALM      30.02F
JACKSON        MOSUNNY   81  73  76 CALM      30.02S
MONTGOMERY     SUNNY     78  66  66 E3        30.05R
TROY           SUNNY     79  65  62 E3        30.05S
KINSTON*       NOT AVBL
GENEVA*          N/A     81  64  57 E5        30.04S
ASHFORD*       NOT AVBL
DOTHAN         SUNNY     79  65  62 E3        30.07S
PANAMA CITY    MOSUNNY   84  71  65 CALM      30.01S

$$



USA.gov is the U.S. government's official web portal to all federal, state and local government web resources and services.